#timestamp,LO_Frequency,Hit,StdDev 
1711778415.9,286047011.6,N
1711778435.7,286047012.3,N
1711778455.6,286047013.8,N
1711778475.4,286047011.7,N
1711778495.2,286047010.9,N
1711778515.1,286047014.9,N
1711778516.0,286047014.9,N
1711778535.8,286047016.2,N
1711778555.6,286047020.9,N
1711778575.5,286047017.7,N
1711778595.3,286047018.7,N
1711778615.2,286047011.2,N
1711778635.9,286047012.2,N
1711778655.7,286047008.8,N
1711778675.6,286047009.0,N
1711778695.4,286047011.9,N
1711778715.2,286047005.5,N
1711778735.1,286047004.1,N
1711778736.0,286047004.1,N
1711778755.8,286047002.2,N
1711778775.7,286047001.8,N
1711778795.5,286047003.1,N
1711778815.3,286047004.2,N
1711778835.2,286047000.5,N
1711778855.0,286047000.4,N
1711778855.9,286047000.4,N
1711778875.8,286047002.7,N
1711778895.6,286047004.3,N
1711778915.4,286047005.8,N
1711778935.3,286047007.3,N
1711778955.1,286047007.3,N
1711778975.9,286047005.5,N
1711778995.7,286047005.7,N
1711779015.5,286047010.7,N
1711779035.4,286047008.8,N
1711779055.2,286047004.6,N
1711779075.0,286047006.2,N
1711779075.9,286047006.2,N
1711779095.8,286047003.1,N
1711779115.6,286047003.5,N
1711779135.5,286047005.3,N
1711779155.3,286047004.3,N
1711779175.1,286047008.8,N
1711779195.9,286047007.2,N
1711779215.7,286047001.4,N
1711779235.6,286047003.0,N
1711779255.4,286047005.5,N
1711779275.2,286046999.8,N
1711779295.1,286047003.4,N
1711779296.0,286047003.4,N
1711779315.8,286047000.0,N
1711779335.6,286046997.2,N
1711779355.5,286046996.8,N
1711779375.3,286046997.0,N
1711779395.2,286046997.2,N
1711779415.9,286046994.1,N
1711779435.7,286046997.1,N
1711779455.6,286046999.4,N
1711779475.4,286046995.5,N
1711779495.2,286046999.1,N
1711779515.1,286046996.5,N
1711779516.0,286046996.5,N
1711779535.8,286046995.0,N
1711779555.7,286046995.4,N
1711779575.5,286046995.2,N
1711779595.3,286046995.9,N
1711779615.2,286046993.4,N
1711779635.0,286046990.7,N
1711779635.9,286046990.7,N
1711779655.7,286046989.0,N
1711779675.6,286046988.9,N
1711779695.4,286046989.4,N
1711779715.3,286046983.7,Y
1711779735.1,286046990.3,P
1711779755.8,286046988.2,P
1711779775.7,286046982.8,P
1711779795.5,286046985.3,N
1711779815.4,286046984.6,Y
1711779835.2,286046993.1,P
1711779855.0,286046994.4,N
1711779855.9,286046994.4,N
1711779875.8,286046994.8,N
1711779895.6,286046991.4,Y
1711779915.5,286046993.3,P
1711779935.3,286046992.1,P
1711779955.1,286046992.1,P
1711779975.9,286046991.1,Y
1711779995.7,286046997.4,P
1711780015.6,286046997.9,N
1711780035.4,286046996.1,N
1711780055.3,286046998.2,N
1711780075.1,286046996.7,N
1711780076.0,286046996.7,N
1711780095.8,286046992.0,Y
1711780115.7,286046999.0,P
1711780135.5,286047000.2,N
1711780155.4,286046999.8,N
1711780175.2,286047002.6,N
1711780195.0,286047000.0,N
1711780196.0,286047000.0,N
1711780215.8,286046998.7,N
1711780235.6,286046998.7,N
1711780255.5,286046995.4,Y
1711780275.3,286046995.4,P
1711780295.1,286046994.4,N
1711780315.9,286046990.2,P
1711780335.7,286046989.7,Y
1711780355.6,286046993.8,P
1711780375.4,286046994.7,P
1711780395.2,286046990.9,P
1711780415.1,286046991.2,Y
1711780416.0,286046991.2,P
1711780435.8,286046993.3,P
1711780455.6,286046991.8,P
1711780475.5,286046992.7,Y
1711780495.3,286047002.3,P
1711780515.2,286047001.2,N
1711780535.9,286046999.9,N
1711780555.7,286047001.1,N
1711780575.6,286046999.2,N
1711780595.4,286046996.9,N
1711780615.3,286047001.0,N
1711780635.1,286047002.8,N
1711780636.0,286047002.8,N
1711780655.8,286047003.8,N
1711780675.7,286046999.9,N
1711780695.5,286047002.1,N
1711780715.3,286047002.5,N
1711780735.2,286047002.5,N
1711780755.0,286046998.3,N
1711780755.9,286046998.3,N
1711780775.8,286046998.7,N
1711780795.6,286046995.1,N
1711780815.4,286046996.8,N
1711780835.3,286046993.3,N
1711780855.1,286046994.0,N
1711780875.8,286046993.1,N
1711780895.7,286046989.7,Y
1711780915.5,286046990.9,P
1711780935.4,286046992.0,N
1711780955.2,286046991.1,N
1711780975.0,286046988.5,Y
1711780975.9,286046988.5,P
1711780995.8,286046995.4,N
1711781015.6,286046998.6,N
1711781035.4,286046998.0,N
1711781055.3,286046993.9,N
1711781075.1,286046995.0,N
1711781095.9,286046995.9,N
1711781115.7,286046992.4,N
1711781135.5,286046991.5,N
1711781155.4,286046990.9,Y
1711781175.2,286046993.3,P
1711781195.0,286046991.8,P
1711781195.9,286046991.8,P
1711781215.8,286046989.6,Y
1711781235.6,286046995.5,P
1711781255.5,286046995.8,P
1711781275.3,286046997.6,N
1711781295.1,286046996.9,N
1711781315.9,286046999.4,N
1711781335.7,286047001.8,N
1711781355.5,286047002.9,N
1711781375.4,286047004.5,N
1711781395.2,286047008.1,N
1711781415.1,286047010.2,N
1711781416.0,286047010.2,N
1711781435.8,286047014.5,N
1711781455.6,286047018.7,N
1711781475.5,286047011.0,N
1711781495.3,286047009.2,N
1711781515.2,286047003.3,N
1711781535.9,286047002.0,N
1711781555.7,286046997.5,N
1711781575.6,286047011.9,N
1711781595.4,286046992.2,N
1711781615.3,286046990.5,N
1711781635.1,286046991.0,N
1711781636.0,286046991.0,N
1711781655.8,286046990.6,N
1711781675.7,286046990.7,N
1711781695.5,286046987.4,N
1711781715.4,286046983.9,N
1711781735.2,286046983.1,N
1711781755.0,286046983.4,N
1711781755.9,286046983.4,N
1711781775.8,286046982.1,N
1711781795.6,286046979.4,N
1711781815.4,286046977.4,N
1711781835.3,286046976.3,N
1711781855.1,286046976.6,N
1711781875.9,286046976.1,N
1711781895.7,286046976.6,N
1711781915.5,286046976.1,N
1711781935.4,286046976.4,N
1711781955.2,286046975.5,N
1711781975.1,286046971.4,N
1711781976.0,286046971.4,N
1711781995.8,286046971.4,N
